Location: *
(34.0486°S, 61.7880°E)
Time: 19:05:37
(UTC+00:00)

CZ-2C R/B - Pass Details

Date: 01 April 2020
Orbit: 639 x 705 km, 98.4° (Epoch: 28 May)

Event Time Altitude Azimuth Distance (km) Brightness Sun altitude
Rises 14:40:06 0° 25° (NNE) 2,987 6.8 -11.7°
Reaches altitude 10° 14:42:21 10° 29° (NNE) 2,073 5.9 -12.2°
Maximum altitude 14:46:45 55° 106° (ESE) 794 3.8 -13.1°
Drops below altitude 10° 14:51:10 10° 183° (S) 2,071 6.3 -14.0°
Sets 14:53:25 0° 187° (S) 2,984 7.2 -14.5°
